Regional Weather Roundup
Issued by NWS Kansas City/Pleasant Hill, MO

Home | Current Version | Previous Version | Graphics & Text | Print | Product List | Glossary Off
Versions: 1 2 3 4 5 6 7 8 9 10 11 12 13 14 15 16 17 18 19 20 21 22 23 24 25 26 27 28 29 30 31 32 33 34 35 36 37 38 39 40 41 42 43 44 45 46 47 48 49 50

000
ASUS43 KEAX 041910
RWREAX

WEATHER ROUNDUP FOR EASTERN KANSAS AND NORTHWEST MISSOURI
NATIONAL WEATHER SERVICE KANSAS CITY/PLEASANT HILL MO
200 PM CDT FRI SEP 04 2015

KSZ040-057-103>105-MOZ028-029-037-043-042000-
...KANSAS CITY METROPOLITAN AREA...

CITY           SKY/WX    TMP DP  RH WIND       PRES   REMARKS
K.C. INTL      MOSUNNY   92  67  43 S15G23    29.97F HX  95
K.C. DOWNTOWN  SUNNY     92  68  45 S12G18    29.95F HX  96
LEES SUMMIT    SUNNY     90  66  45 S13G22    29.99F HX  92
OLATHE - IXD   SUNNY     89  69  51 S13       29.98F HX  93
OLATHE - OJC   SUNNY     87  68  52 S14       29.98F HX  90
LAWRENCE       SUNNY     93  68  43 S17       29.95F HX  97

$$

MOZ001>008-011>017-020>025-030>033-038>040-044>046-053-054-042000-
...NORTHERN AND CENTRAL MISSOURI...

CITY           SKY/WX    TMP DP  RH WIND       PRES   REMARKS
ST. JOSEPH     SUNNY     90  70  51 S13       29.94F HX  95
MOSBY          PTCLDY    90  66  45 S9        29.96F HX  92
WARRENSBURG    SUNNY     90  64  43 S6        29.99F HX  91
WHITEMAN AFB   SUNNY     92  67  43 SW14G20   29.98F HX  95
CLINTON        SUNNY     91  70  49 CALM      30.00F HX  97
SEDALIA        MOSUNNY   93  67  42 SW7       30.01F HX  96
WARSAW         NOT AVBL
CHILLICOTHE      N/A     91  69  48 S9        29.98F HX  96
KIRKSVILLE     SUNNY     90  66  45 S6        30.00F HX  92

$$

MOZ041-047>049-056>058-063>065-088>090-097-042000-
...EASTERN AND SOUTHERN MISSOURI...

CITY           SKY/WX    TMP DP  RH WIND       PRES   REMARKS
ST. LOUIS INTL MOSUNNY   94  66  39 VRB5      30.01F HX  97
SPIRIT OF STL  PTSUNNY   91  70  49 S6        29.99F HX  96
COLUMBIA       MOSUNNY   90  70  51 S8        30.01F HX  95
JEFFERSON CITY SUNNY     91  63  39 S8        29.99F HX  92
ROLLA          MOSUNNY   91  66  43 VRB7      30.02F HX  93
OSAGE BEACH    MOSUNNY   91  64  40 SE7       30.02F HX  93
SPRINGFIELD    SUNNY     88  66  48 S8        30.03F HX  90
BRANSON        PTSUNNY   86  68  54 S7        30.05F
WEST PLAINS    PTSUNNY   86  67  52 SW5       30.06F

$$

IAZ060-094-KSZ022-034>040-054-083-096-NEZ052-066-093-042000-
...KANSAS...SOUTHEAST NEBRASKA AND IOWA...

CITY           SKY/WX    TMP DP  RH WIND       PRES   REMARKS
TOPEKA         SUNNY     91  66  43 S16G23    29.95S HX  93
MANHATTAN      SUNNY     95  64  35 S22       29.91F HX  97
EMPORIA        SUNNY     90  66  45 S21       29.96F HX  92
CHANUTE        MOSUNNY   88  70  55 S14G22    29.99F HX  93
WICHITA        MOSUNNY   92  65  40 S17G26    29.93F HX  94
OMAHA          CLOUDY    86  71  60 S15       29.89F HX  91
LINCOLN        MOSUNNY   88  69  53 S21       29.87F HX  92
FALLS CITY     MOSUNNY   91  66  43 S13G26    29.92F HX  93
LAMONI         PTSUNNY   88  71  57 S10       29.97F HX  94
DES MOINES     PTSUNNY   90  70  51 S14       29.94F HX  95

$$




USA.gov is the U.S. government's official web portal to all federal, state and local government web resources and services.